Regional Weather Roundup
Issued by NWS

Home | Current Version | Previous Version | Text Only | Print | Product List | Glossary Off
Versions: 1 2 3 4 5 6 7 8 9 10 11 12 13 14 15 16 17 18 19 20 21 22 23 24 25 26 27 28 29 30 31 32 33 34 35 36 37 38 39 40 41 42 43 44 45 46 47 48 49 50

000
ASUS43 KIND 210659
RWRIN

WEATHER ROUNDUP FOR INDIANA
NATIONAL WEATHER SERVICE INDIANAPOLIS IN
200 AM EST WED FEB 21 2018

NOTE: "FAIR" INDICATES FEW OR NO CLOUDS BELOW 12,000 FEET WITH NO
SIGNIFICANT WEATHER AND/OR OBSTRUCTIONS TO VISIBILITY.

* - STATION DOES NOT REPORT WEATHER SUCH AS PRECIPITATION OR FOG.

+ - STATION NOT QUALITY CONTROLLED BY THE NATIONAL WEATHER SERVICE.
    USE DATA WITH CAUTION...ESPECIALLY DEWPOINT AND RELATIVE
    HUMIDITY OBSERVATIONS.

INZ001>003-010>013-019-020-210800-
NORTHWEST INDIANA

CITY           SKY/WX    TMP DP  RH WIND       PRES   REMARKS
MICHIGAN CITY+ RAIN      32  32 100 NW9G16    30.19R WCI  24
MONTICELLO +   RAIN      41  40  96 N14       30.10F
RENSSELAER +   RAIN      37  34  87 NW6       30.16R WCI  33

$$

LMZ046-743>745-210800-
SOUTHERN LAKE MICHIGAN

STATION/POSITION TIME  TEMP    WIND        PRES    WAVE
                       AIR SEA DIR/SP/G            HT
                 (UTC) (F)     (DEG/KT/KT) (MB)    (FT)
BURNS HARBOR     0640   33     320/ 13/ 17 1022.7R
MICHIGAN CITY    0630   33     310/ 15/ 17   N/A

$$

INZ004-005-014>016-021>024-210800-
NORTH CENTRAL INDIANA

CITY           SKY/WX    TMP DP  RH WIND       PRES   REMARKS
GOSHEN         LGT RAIN  40  38  93 NW16      30.13R WCI  31
PERU/GRISSOM   HVY RAIN  44  44 100 N14       30.09R
SOUTH BEND     LGT RAIN  35  34  96 NW10      30.16R WCI  27
WARSAW +       RAIN      41  39  93 NW10G16   30.13R

$$

INZ006>009-017-018-025>027-210800-
NORTHEAST INDIANA

CITY           SKY/WX    TMP DP  RH WIND       PRES   REMARKS
AUBURN +       RAIN      46  46 100 NW9       30.07S
FORT WAYNE     HVY RAIN  56  55  97 NW7       30.07R FOG
KENDALLVILLE + LGT RAIN  44  44 100 NW5       30.07F

$$

INZ028-029-035-036-043>045-051>053-210800-
WEST CENTRAL INDIANA

CITY           SKY/WX    TMP DP  RH WIND       PRES   REMARKS
CRAWFORDSVL +  LGT SNOW  40  40 100 N6        30.08S WCI  36
GREENCASTLE +  CLOUDY    46  45  93 NW7       30.11R
LAFAYETTE      RAIN      40  40 100 NW10      30.14R FOG     WCI  33
TERRE HAUTE    RAIN      45  44  97 NW13      30.13R FOG

$$

INZ030>032-037>040-046>048-054>057-064-065-210800-
CENTRAL INDIANA

CITY           SKY/WX    TMP DP  RH WIND       PRES   REMARKS
GREENWOOD *+   FAIR      65 -31   2 S15       30.03F
INDIANAPOLIS   RAIN      54  52  93 NW22      30.08R FOG
-EAGLE CREEK   HVY RAIN  53  50  89 NW13      30.07R FOG
KOKOMO +       HVY RAIN  46  46 100 N13       30.09R
MT COMFORT *+  FAIR      63  61  94 S12       30.03S
SHELBYVILLE    FAIR      67  57  70 S17       30.02F

$$

INZ033-034-041-042-049-050-058-059-210800-
EAST CENTRAL INDIANA

CITY           SKY/WX    TMP DP  RH WIND       PRES   REMARKS
MUNCIE         MOCLDY    67  58  72 S13       30.02F
RICHMOND +     FAIR      61  59  94 S20       30.08S

$$

INZ060-061-067>069-081>083-085>088-210800-
SOUTHWEST INDIANA

CITY           SKY/WX    TMP DP  RH WIND       PRES   REMARKS
EVANSVILLE     CLOUDY    57  53  86 NW15G39   30.11R
HUNTINGBURG +  FAIR      70  61  73 S23G33    30.05S

$$

INZ062-063-066-070>080-084-089>092-210800-
SOUTH CENTRAL AND SOUTHEAST INDIANA

CITY           SKY/WX    TMP DP  RH WIND       PRES   REMARKS
BLOOMINGTON    CLOUDY    72  59  63 S17G33    30.02S
FRENCH LICK *+ MOCLDY    70  54  56 S14G22    30.05S
SEYMOUR +      FAIR      70  57  64 S21G28    30.06S

$$





USA.gov is the U.S. government's official web portal to all federal, state and local government web resources and services.